TimePDT,TemperatureF,Dew PointF,Humidity,Sea Level PressureIn,VisibilityMPH,Wind Direction,Wind SpeedMPH,Gust SpeedMPH,PrecipitationIn,Events,Conditions,WindDirDegrees,DateUTC
12:53 AM,55.0,44.1,67,29.98,10.0,SW,12.7,-,N/A,,Clear,220,2012-05-04 07:53:00
1:53 AM,55.0,43.0,64,29.98,10.0,WSW,12.7,-,N/A,,Clear,240,2012-05-04 08:53:00
2:53 AM,54.0,44.1,69,29.97,10.0,WSW,16.1,-,N/A,,Clear,240,2012-05-04 09:53:00
3:53 AM,52.0,44.1,74,29.98,10.0,SW,9.2,-,N/A,,Clear,220,2012-05-04 10:53:00
4:53 AM,53.1,43.0,69,29.98,10.0,WSW,11.5,-,N/A,,Clear,240,2012-05-04 11:53:00
5:53 AM,52.0,43.0,71,29.99,10.0,West,5.8,-,N/A,,Clear,270,2012-05-04 12:53:00
6:53 AM,54.0,43.0,66,30.01,10.0,West,17.3,-,N/A,,Clear,280,2012-05-04 13:53:00
7:53 AM,57.9,43.0,58,30.02,10.0,West,16.1,-,N/A,,Clear,280,2012-05-04 14:53:00
8:53 AM,62.1,42.1,48,30.01,10.0,WNW,17.3,-,N/A,,Clear,290,2012-05-04 15:53:00
9:53 AM,64.0,39.9,41,30.01,10.0,WNW,12.7,-,N/A,,Clear,290,2012-05-04 16:53:00
10:53 AM,68.0,41.0,37,30.01,10.0,WNW,16.1,21.9,N/A,,Clear,290,2012-05-04 17:53:00
11:53 AM,72.0,41.0,33,30.00,10.0,West,13.8,21.9,N/A,,Clear,280,2012-05-04 18:53:00
12:53 PM,73.0,39.9,30,29.98,10.0,West,11.5,20.7,N/A,,Clear,280,2012-05-04 19:53:00
1:53 PM,75.0,39.0,27,29.97,10.0,WSW,17.3,23.0,N/A,,Clear,240,2012-05-04 20:53:00
2:53 PM,75.0,41.0,29,29.97,10.0,West,17.3,27.6,N/A,,Clear,260,2012-05-04 21:53:00
3:53 PM,75.0,39.0,27,29.96,10.0,West,16.1,25.3,N/A,,Clear,260,2012-05-04 22:53:00
4:53 PM,73.9,39.9,29,29.97,10.0,West,12.7,23.0,N/A,,Clear,260,2012-05-04 23:53:00
5:53 PM,72.0,39.0,30,29.97,10.0,West,16.1,24.2,N/A,,Clear,270,2012-05-05 00:53:00
6:53 PM,69.1,37.9,32,29.98,10.0,West,18.4,-,N/A,,Clear,280,2012-05-05 01:53:00
7:53 PM,64.9,39.0,39,30.00,10.0,West,15.0,-,N/A,,Clear,280,2012-05-05 02:53:00
8:53 PM,61.0,37.0,41,30.02,10.0,WNW,20.7,-,N/A,,Clear,290,2012-05-05 03:53:00
9:53 PM,60.1,39.0,46,30.02,10.0,West,18.4,-,N/A,,Clear,280,2012-05-05 04:53:00
10:53 PM,57.9,36.0,44,30.02,10.0,WSW,10.4,-,N/A,,Clear,250,2012-05-05 05:53:00
11:53 PM,57.9,39.9,51,30.01,10.0,West,13.8,-,N/A,,Clear,270,2012-05-05 06:53:00